Everett, WA

5:05 PM PST on November 15, 2019 (GMT -0800)
Snohomish County

Weather History for KPAE - August, 2019

Change the Weather History Date:

Tuesday, August 6, 2019

  Actual Average Record
Temperature  
Mean Temperature 65 °F -  
Max Temperature 77 °F 73 °F 87 °F (1977)
Min Temperature 55 °F 54 °F 46 °F (1959)
Growing Degree Days 15 (Base 50)    
Moisture  
Dew Point 55 °F    
Average Humidity 82    
Maximum Humidity 100    
Minimum Humidity 48    
Precipitation  
Precipitation 0.00 in - - ()
Sea Level Pressure  
Sea Level Pressure 29.99 in    
Wind  
Wind Speed 4 mph (North)    
Max Wind Speed 9 mph    
Max Gust Speed -    
Visibility 7 miles    
Events Fog    
Averages and records for this station are not official NWS values.
T = Trace of Precipitation, MM = Missing Value Source: NWS Daily Summary

Daily Weather History Graph

Daily Weather History Graph

Search for Another Location

Airport or City:

Astronomy

Aug. 06, 2019 Rise Set
Actual Time 5:52 AM PDT 8:37 PM PDT
Civil Twilight 5:16 AM PDT 9:12 PM PDT
Nautical Twilight 4:31 AM PDT 9:57 PM PDT
Astronomical Twilight 3:37 AM PDT 10:50 PM PDT
Moon 12:52 PM PDT (8/6) 11:54 PM PDT (8/6)
Length of Visible Light 15h 56m
Length of Day
14h 45m
Waxing Crescent, 40% of the Moon is Illuminated
Aug 6
Waxing Crescent
Aug 7
First Quarter
Aug 15
Full
Aug 23
Last Quarter
Aug 30
New

Hourly Weather History & Observations

Time (PDT) Temp. Dew Point Humidity Pressure Visibility Wind Dir Wind Speed Gust Speed Precip Events Conditions
12:53 AM 57.9 °F 55.9 °F 93% 30.00 in 10.0 mi NNE 4.6 mph - N/A   Clear
1:53 AM 57.9 °F 55.9 °F 93% 30.00 in 10.0 mi NE 3.5 mph - N/A   Clear
2:53 AM 57.0 °F 55.0 °F 93% 30.00 in 9.0 mi Calm Calm - N/A   Clear
3:50 AM 55.4 °F 55.4 °F 100% 30.01 in 5.0 mi NNE 3.5 mph - N/A   Scattered Clouds
3:53 AM 55.9 °F 55.0 °F 97% 30.00 in 4.0 mi North 4.6 mph - N/A   Mostly Cloudy
3:56 AM 55.9 °F 55.0 °F 97% 30.01 in 1.8 mi North 3.5 mph - N/A   Mostly Cloudy
4:04 AM 55.9 °F 55.0 °F 97% 30.01 in 0.2 mi NNE 3.5 mph - N/A Fog Fog
4:17 AM 55.9 °F 55.0 °F 97% 30.01 in 0.2 mi North 4.6 mph - N/A Fog Fog
4:53 AM 55.9 °F 55.0 °F 97% 30.01 in 0.2 mi North 3.5 mph - N/A Fog Fog
5:53 AM 55.0 °F 55.0 °F 100% 30.02 in 0.2 mi North 5.8 mph - N/A Fog Fog
6:53 AM 55.0 °F 55.0 °F 100% 30.03 in 0.2 mi NE 3.5 mph - N/A Fog Fog
7:53 AM 55.0 °F 55.0 °F 100% 30.04 in 0.2 mi NNE 3.5 mph - N/A Fog Fog
8:51 AM 55.4 °F 55.4 °F 100% 30.04 in 0.2 mi Calm Calm - N/A Fog Fog
8:53 AM 55.9 °F 55.0 °F 97% 30.04 in 5.0 mi Calm Calm - N/A   Scattered Clouds
9:53 AM 59.0 °F 55.9 °F 90% 30.04 in 5.0 mi NNW 4.6 mph - N/A   Scattered Clouds
10:53 AM 66.0 °F 55.9 °F 70% 30.03 in 10.0 mi Variable 5.8 mph - N/A Fog Clear
11:53 AM 66.9 °F 55.9 °F 68% 30.02 in 10.0 mi WSW 5.8 mph - N/A Fog Clear
12:53 PM 70.0 °F 55.9 °F 61% 30.00 in 10.0 mi WSW 5.8 mph - N/A Fog Clear
1:53 PM 73.9 °F 57.0 °F 55% 29.98 in 10.0 mi Variable 4.6 mph - N/A Fog Clear
2:53 PM 75.0 °F 55.9 °F 51% 29.96 in 10.0 mi West 6.9 mph - N/A   Clear
3:53 PM 75.9 °F 55.0 °F 48% 29.95 in 10.0 mi Variable 6.9 mph - N/A   Clear
4:53 PM 75.9 °F 55.9 °F 50% 29.94 in 10.0 mi North 6.9 mph - N/A   Clear
5:53 PM 73.0 °F 55.0 °F 53% 29.92 in 10.0 mi Variable 4.6 mph - N/A   Clear
6:53 PM 71.1 °F 55.0 °F 57% 29.92 in 10.0 mi North 6.9 mph - N/A   Clear
7:53 PM 66.0 °F 54.0 °F 65% 29.92 in 10.0 mi North 9.2 mph - N/A   Clear
8:53 PM 61.0 °F 55.0 °F 81% 29.94 in 10.0 mi NNE 6.9 mph - N/A   Clear
9:53 PM 60.1 °F 55.0 °F 83% 29.95 in 10.0 mi North 8.1 mph - N/A   Clear
10:53 PM 59.0 °F 55.0 °F 87% 29.95 in 10.0 mi NNE 5.8 mph - N/A   Clear
11:53 PM 59.0 °F 55.9 °F 90% 29.95 in 10.0 mi NNE 6.9 mph - N/A   Clear